Regional Weather Roundup
Issued by NWS

Home | Current Version | Previous Version | Graphics & Text | Print | Product List | Glossary On
Versions: 1 2 3 4 5 6 7 8 9 10 11 12 13 14 15 16 17 18 19 20 21 22 23 24 25 26 27 28 29 30 31 32 33 34 35 36 37 38 39 40 41 42 43 44 45 46 47 48 49 50
000
ASUS43 KTOP 020759
RWRKS

WEATHER ROUNDUP FOR KANSAS
NATIONAL WEATHER SERVICE GOODLAND KS
200 AM CST FRI DEC 02 2016

NOTE:  "FAIR" INDICATES FEW OR NO CLOUDS BELOW 12,000 FEET WITH NO
SIGNIFICANT WEATHER AND/OR OBSTRUCTIONS TO VISIBILITY.

KSZ001>006-013>018-027>032-041>047-020900-
NORTHWEST KANSAS

CITY           SKY/WX    TMP DP  RH WIND       PRES   REMARKS
GOODLAND       CLEAR     14   6  70 W9        30.07R
HAYS           CLEAR     27  17  66 NW6       30.11R
HILL CITY      CLEAR     19  12  74 W7        30.10S
RUSSELL        CLEAR     24  15  68 W9        30.09R
$$

KSZ061>065-074>080-084>089-020900-
SOUTHWEST KANSAS

CITY           SKY/WX    TMP DP  RH WIND       PRES   REMARKS
DODGE CITY     CLOUDY    26  14  60 S3        30.10R
ELKHART          N/A     29   7  39 E6          N/A
GARDEN CITY    CLOUDY    17   8  67 NW9       30.09R
GREAT BEND     CLEAR     21  14  74 W3        30.11R
LIBERAL        CLOUDY    21   5  49 N7        30.08R
$$

KSZ066>073-081>083-090>101-020900-
SOUTHEAST KANSAS

CITY           SKY/WX    TMP DP  RH WIND       PRES   REMARKS
CHANUTE        CLOUDY    41  28  60 E5        30.13R
COFFEYVILLE    CLOUDY    40  30  67 NE5       30.12S
HUTCHINSON     CLEAR     24  19  81 CALM      30.11S
MEDICINE LODGE   N/A     28  19  69 N8        30.09R
NEWTON         CLOUDY    35  22  58 E8        30.11S
PARSONS        CLOUDY    41  29  62 VRB3      30.13S
WICHITA INTL   PTCLDY    36  25  64 N7        30.10R
WICHITA JABRA  PTCLDY    32  24  72 N5        30.10R
WINFIELD       CLEAR     40  25  55 E7        30.09S
$$

KSZ007>012-019>026-033>040-048>060-102>105-020900-
NORTHEAST KANSAS

CITY           SKY/WX    TMP DP  RH WIND       PRES   REMARKS
CONCORDIA      CLEAR     26  19  74 CALM      30.12R
EMPORIA        CLOUDY    34  26  72 CALM      30.13R
LAWRENCE       CLEAR     19  17  92 CALM      30.16R
MANHATTAN      CLEAR     21  18  88 CALM      30.14R
OLATHE IND     CLOUDY    28  24  85 CALM      30.15R
OLATHE EXE     CLOUDY    28  23  81 CALM      30.14R
SALINA         CLEAR     25  18  74 CALM      30.13R
TOPEKA BILLARD CLEAR     24  20  84 CALM      30.15R
TOPEKA FORBES  MOCLDY    25  20  81 CALM      30.14R
$$




USA.gov is the U.S. government's official web portal to all federal, state and local government web resources and services.